Flag for U.S.A. Weather past 2 weeks in Fort Wayne, Indiana, U.S.A.

Now
40 °F

Clear.


Feels Like: 32 °F
Forecast: 36 / 60 °F
Wind: 13 mph from East

Location: Fort Wayne International Airport


UV Index: 5 (Moderate)

Visibility: 7 mi


Pressure: 30.35 "Hg

Humidity: 86%

Dew point: 36 °F

Location of Fort WayneLocation

Historic Weather in Fort Wayne

°F

Fort Wayne temperature yesterday

Maximum temperature yesterday: 69 °F (at 3:54 PM)
Minimum temperature yesterday: 43 °F (at 5:54 AM)
Average temperature yesterday: 55 °F

Past Weeks' High & Low Weather Summary

 TemperatureHumidityPressure
High76 °F (Apr 12, 3:54 PM)100% (Apr 4, 6:54 AM)30.45 "Hg (Apr 4, 6:54 AM)
Low23 °F (Apr 16, 4:54 AM)24% (Apr 17, 1:54 PM)29.46 "Hg (Apr 14, 5:54 AM)
Average48 °F63%29.98 "Hg
* Reported Apr 4 4:54 AM — Apr 19 4:54 AM, Fort Wayne, Weather by CustomWeather, © 2014

Note: Actual official high and low records may vary slightly from our data, if they occured in-between our weather recording intervals... More about our weather records

Advertising

Historic Weather Conditions — Data for Previous 24 hours

 ConditionsComfort  
Time TempWeatherWind HumidityBarometerVisibility
4:54 AM
Apr 19
39 °FClear.7 mph76%30.33 "Hg10 mi
3:54 AM39 °FClear.6 mph76%30.33 "Hg10 mi
2:54 AM39 °FClear.7 mph79%30.32 "Hg10 mi
1:54 AM41 °FClear.8 mph76%30.32 "Hg10 mi
12:54 AM41 °FClear.8 mph76%30.33 "Hg10 mi
11:54 PM
Apr 18
45 °FClear.9 mph68%30.31 "Hg10 mi
10:54 PM49 °FClear.14 mph57%30.31 "Hg10 mi
9:54 PM53 °FClear.12 mph51%30.28 "Hg10 mi
8:54 PM55 °FSunny.7 mph40%30.25 "Hg10 mi
7:54 PM60 °FPassing clouds.13 mph32%30.24 "Hg10 mi
6:54 PM65 °FPassing clouds.13 mph34%30.24 "Hg10 mi
5:54 PM67 °FPassing clouds.9 mph32%30.24 "Hg10 mi
4:54 PM69 °FScattered clouds.17 mph32%30.24 "Hg10 mi
3:54 PM69 °FPartly sunny.21 mph33%30.26 "Hg10 mi
2:54 PM68 °FBroken clouds.13 mph35%30.27 "Hg10 mi
1:54 PM67 °FBroken clouds.10 mph37%30.27 "Hg10 mi
12:54 PM65 °FScattered clouds.8 mph39%30.28 "Hg10 mi
11:54 AM64 °FScattered clouds.8 mph40%30.29 "Hg10 mi
10:54 AM62 °FScattered clouds.7 mph44%30.29 "Hg10 mi
9:54 AM58 °FPartly sunny.5 mph51%30.29 "Hg10 mi
8:54 AM51 °FBroken clouds.No wind69%30.29 "Hg10 mi
7:54 AM45 °FOvercast.No wind82%30.29 "Hg10 mi
6:54 AM43 °FPassing clouds.3 mph76%30.27 "Hg10 mi
Weather by CustomWeather, © 2014

See weather overview